CW0566 Weather Reports


Display with metric or nautical units.
time (UTC)temp
F
wind
direction
speed
MPH
gust
MPH
rain 1hr
in
rain 24hr
in
rain mn
in
humidity
%
barometer
mb
20260831210515 82 315 1.0 4.0 0.00 1.10 0.64 71 1018.6
20260831205536 82 315 1.0 3.0 0.00 1.10 0.64 75 1018.6
20260831204516 81 315 1.0 4.0 0.00 1.10 0.64 76 1018.5
20260831203516 81 0.0 1.0 0.00 1.10 0.64 77 1018.7
20260831202536 81 315 1.0 3.0 0.00 1.10 0.64 77 1018.7
20260831201515 80 293 2.0 5.0 0.00 1.10 0.64 79 1018.8
20260831200536 80 0.0 1.0 0.00 1.10 0.64 81 1018.8
20260831195515 80 293 1.0 2.0 0.00 1.10 0.64 77 1018.8
20260831194516 80 0.0 2.0 0.00 1.10 0.64 77 1018.9
20260831193537 81 293 1.0 3.0 0.00 1.10 0.64 78 1019.2
20260831192516 81 293 1.0 3.0 0.00 1.10 0.64 76 1019.4
20260831191515 81 293 2.0 4.0 0.00 1.10 0.64 76 1019.5
20260831190515 81 315 1.0 3.0 0.00 1.10 0.64 75 1019.7
20260831185516 81 293 1.0 4.0 0.00 1.10 0.64 73 1019.6
20260831184516 80 293 1.0 5.0 0.00 1.10 0.64 77 1019.5
20260831183515 80 293 1.0 3.0 0.00 1.10 0.64 77 1019.4
20260831182515 80 0.0 2.0 0.00 1.10 0.64 77 1019.5
20260831181515 80 293 2.0 5.0 0.00 1.10 0.64 76 1019.7
20260831180516 80 293 1.0 3.0 0.00 1.10 0.64 78 1019.6
20260831175516 80 293 2.0 3.0 0.00 1.10 0.64 77 1019.6
20260831174538 80 0.0 3.0 0.00 1.10 0.64 76 1019.8
20260831173515 80 293 1.0 2.0 0.00 1.10 0.64 76 1019.9
20260831172517 80 203 2.0 4.0 0.00 1.10 0.64 77 1019.9
20260831171537 79 0.0 2.0 0.00 1.10 0.64 75 1019.9
20260831170517 79 203 2.0 4.0 0.00 1.10 0.64 73 1019.9
20260831165517 79 203 2.0 4.0 0.00 1.10 0.64 77 1019.9
20260831164517 79 248 2.0 4.0 0.00 1.10 0.64 75 1020.1
20260831163538 79 270 1.0 3.0 0.00 1.10 0.64 75 1020.0
20260831162517 79 225 1.0 5.0 0.00 1.10 0.64 82 1020.1
20260831161518 78 225 2.0 4.0 0.00 1.10 0.64 78 1020.0
20260831160538 77 135 1.0 3.0 0.00 1.10 0.64 80 1020.2
20260831155517 76 135 1.0 3.0 0.00 1.10 0.64 82 1020.1
20260831154517 76 135 1.0 3.0 0.00 1.10 0.64 82 1020.1
20260831153517 76 135 2.0 4.0 0.00 1.10 0.64 82 1019.9
20260831152537 76 0.0 1.0 0.00 1.10 0.64 84 1020.0
20260831151517 76 158 1.0 3.0 0.00 1.10 0.64 83 1020.2
20260831150517 75 158 1.0 4.0 0.00 1.10 0.64 85 1020.2
20260831145517 75 158 2.0 3.0 0.00 1.10 0.64 84 1020.2
20260831144517 75 135 1.0 3.0 0.00 1.10 0.64 86 1020.2
20260831144018 75 135 1.0 3.0 0.00 1.10 0.64 87 1020.3
20260831143058 75 135 1.0 3.0 0.00 1.10 0.64 87 1020.2
20260831142611 74 135 2.0 4.0 0.00 1.10 0.66 87 1020.2
20260831140517 73 180 1.0 4.0 0.00 1.10 0.64 92 1020.2
20260831135517 72 180 1.0 3.0 0.00 1.10 0.64 94 1020.2
20260831134517 72 180 1.0 2.0 0.00 1.10 0.64 95 1020.1
20260831133517 72 180 1.0 3.0 0.00 1.10 0.64 96 1020.1
20260831132517 71 0.0 2.0 0.00 1.10 0.64 96 1020.0
20260831131517 71 180 1.0 4.0 0.00 1.10 0.64 97 1020.1
20260831130517 71 180 1.0 3.0 0.00 1.10 0.64 98 1020.1
20260831125517 71 203 1.0 3.0 0.00 1.10 0.64 98 1020.0
20260831124517 71 203 1.0 3.0 0.00 1.10 0.64 98 1020.0
20260831123537 71 225 1.0 2.0 0.00 1.10 0.64 98 1019.8
20260831122517 71 0.0 2.0 0.00 1.10 0.64 98 1019.9
20260831121517 71 0.0 1.0 0.00 1.10 0.64 98 1019.8
20260831120516 71 0.0 2.0 0.00 1.10 0.64 98 1019.8
20260831115516 71 0.0 2.0 0.00 1.10 0.64 98 1019.7
20260831114517 71 0.0 1.0 0.00 1.10 0.64 98 1019.7
20260831113517 70 0.0 0.0 0.00 1.10 0.64 98 1019.5
20260831112537 70 0.0 0.0 0.00 1.10 0.64 98 1019.5
20260831111517 70 0.0 1.0 0.00 1.10 0.64 98 1019.5
20260831110537 70 0.0 0.0 0.00 1.10 0.64 98 1019.5
20260831105516 70 0.0 0.0 0.00 1.10 0.64 98 1019.4
20260831104517 70 0.0 0.0 0.00 1.10 0.64 98 1019.3
20260831103516 70 0.0 0.0 0.00 1.10 0.64 98 1019.1
20260831102516 70 0.0 0.0 0.00 1.10 0.64 98 1019.0
20260831101516 70 248 1.0 2.0 0.00 1.10 0.64 98 1018.9
20260831100516 70 0.0 2.0 0.00 1.10 0.64 98 1019.1
20260831095516 70 0.0 1.0 0.00 1.10 0.64 98 1018.9
20260831094536 70 0.0 0.0 0.00 1.10 0.64 97 1018.7
20260831093516 70 0.0 0.0 0.00 1.10 0.64 97 1018.6
20260831092517 70 0.0 1.0 0.01 1.10 0.64 97 1018.6
20260831091517 69 0.0 1.0 0.01 1.10 0.64 97 1018.5
20260831090517 70 0.0 1.0 0.01 1.10 0.64 97 1018.3
20260831085517 70 0.0 0.0 0.01 1.10 0.64 97 1018.2
20260831084516 70 0.0 0.0 0.01 1.10 0.64 97 1018.3
20260831083516 70 0.0 0.0 0.01 1.10 0.64 97 1018.2
20260831082516 70 0.0 0.0 0.00 1.09 0.63 97 1018.4
20260831081516 70 0.0 0.0 0.00 1.09 0.63 97 1018.3
20260831080516 70 0.0 0.0 0.00 1.09 0.63 97 1018.3
20260831075516 70 0.0 0.0 0.00 1.09 0.63 97 1018.5
20260831074516 70 0.0 0.0 0.00 1.09 0.63 97 1018.5
20260831073536 70 0.0 0.0 0.00 1.09 0.63 97 1018.5
20260831072516 70 0.0 0.0 0.00 1.09 0.63 97 1018.4
20260831071516 71 0.0 0.0 0.00 1.09 0.63 97 1018.5
20260831070517 71 0.0 0.0 0.00 1.09 0.63 97 1018.5
20260831065516 71 0.0 0.0 0.00 1.09 0.63 97 1018.4
20260831064516 71 0.0 0.0 0.00 1.09 0.63 97 1018.3
20260831063516 71 0.0 0.0 0.14 1.09 0.63 97 1018.4
20260831062516 71 0.0 0.0 0.44 1.09 0.63 97 1018.4
20260831061517 71 0.0 0.0 0.61 1.09 0.63 97 1018.6
20260831060516 71 0.0 0.0 0.62 1.09 0.63 97 1018.9
20260831055516 71 0.0 0.0 0.62 1.09 0.63 97 1019.0
20260831054516 72 0.0 2.0 0.62 1.09 0.63 97 1019.1
20260831053516 72 270 2.0 5.0 0.48 0.95 0.49 97 1019.2
20260831052516 72 270 1.0 5.0 0.18 0.65 0.19 96 1019.1
20260831051516 72 135 1.0 3.0 0.01 0.48 0.02 96 1019.0
20260831050516 72 0.0 3.0 0.00 0.47 0.01 96 1018.7
20260831045516 72 0.0 1.0 0.03 0.47 0.01 96 1018.5
20260831044516 72 0.0 0.0 0.25 0.47 0.01 95 1018.5
20260831043516 72 0.0 0.0 0.41 0.47 0.01 95 1018.6
20260831042516 72 0.0 0.0 0.44 0.47 0.01 95 1018.7
20260831041516 72 248 1.0 3.0 0.47 0.47 0.01 94 1018.8
20260831040536 72 338 1.0 4.0 0.47 0.47 0.01 94 1018.8
20260831035537 73 90 2.0 4.0 0.44 0.44 0.44 94 1019.1
20260831034516 74 293 4.0 15.0 0.22 0.22 0.22 94 1019.6
20260831033516 75 0.0 3.0 0.06 0.06 0.06 94 1019.1
20260831032516 75 0.0 2.0 0.03 0.03 0.03 94 1018.9
20260831031516 75 0.0 0.0 0.00 0.00 0.00 93 1018.9
20260831030516 75 0.0 0.0 0.00 0.00 0.00 93 1018.9
20260831025517 75 0.0 0.0 0.00 0.00 0.00 93 1018.7
20260831024516 75 0.0 0.0 0.00 0.00 0.00 92 1018.8
20260831023516 75 0.0 0.0 0.00 0.00 0.00 92 1018.8
20260831022536 75 0.0 0.0 0.00 0.00 0.00 92 1019.0
20260831021516 75 0.0 0.0 0.00 0.00 0.00 92 1018.9
20260831020536 75 0.0 0.0 0.00 0.00 0.00 91 1018.8
20260831015516 75 0.0 0.0 0.00 0.00 0.00 91 1018.8
20260831014516 76 0.0 0.0 0.00 0.00 0.00 91 1019.0
20260831013516 76 0.0 0.0 0.00 0.00 0.00 90 1019.1
20260831012516 76 0.0 0.0 0.00 0.00 0.00 90 1019.2
20260831011517 76 0.0 0.0 0.00 0.00 0.00 90 1019.2
20260831010516 76 0.0 0.0 0.00 0.00 0.00 90 1019.1
20260831005516 76 0.0 0.0 0.00 0.00 0.00 89 1019.1
20260831004516 76 0.0 1.0 0.00 0.00 0.00 89 1018.8
20260831003516 77 0.0 0.0 0.00 0.00 0.00 88 1018.7
20260831002536 77 0.0 0.0 0.00 0.00 0.00 87 1018.6
20260831001516 78 0.0 0.0 0.00 0.00 0.00 86 1018.5
20260831000516 78 0.0 0.0 0.00 0.00 0.00 85 1018.5
20260830235516 79 0.0 0.0 0.00 0.00 0.00 84 1018.5
20260830234516 80 0.0 0.0 0.00 0.00 0.00 83 1018.2
20260830233516 81 0.0 0.0 0.00 0.00 0.00 81 1018.3
20260830232516 82 0.0 0.0 0.00 0.00 0.00 80 1018.3
20260830231516 82 0.0 0.0 0.00 0.00 0.00 79 1018.4